Track серженко михаил

Time Latitude Longitude Accuracy (66% radius in meters) Altitude (meters) Speed (km/hour) Bearing (degrees) Battery (%) GPS flag
10:24:22 44.638090 39.185036 3 102 1.5 0 69 1 delete
10:24:10 44.638094 39.185051 3 98 1.5 0 69 1 delete
10:23:59 44.638084 39.185135 3 98 1.5206906795502 304 69 1 delete
10:23:55 44.638065 39.185134 4 98 1.5811388492584 304 69 1 delete
10:23:48 44.637993 39.185190 4 96 1.8027756214142 285.79998779297 69 1 delete
10:23:47 44.637983 39.185204 4 96 1.8027756214142 276.79998779297 69 1 delete
10:23:40 44.637936 39.185324 4 96 1.9525624513626 314.70001220703 69 1 delete
10:23:37 44.637890 39.185366 5 93 1.8027756214142 306.60000610352 69 1 delete
10:23:34 44.637867 39.185418 5 90 1.8027756214142 250.10000610352 69 1 delete
10:23:26 44.637863 39.185542 6 94 1.5811388492584 354.89999389648 69 1 delete
10:23:25 44.637860 39.185556 5 94 1.5811388492584 354.89999389648 69 1 delete
10:23:15 44.637832 39.185661 5 100 1.5811388492584 354.89999389648 69 1 delete
10:23:13 44.637820 39.185683 5 101 1.5811388492584 354.89999389648 69 1 delete
10:23:03 44.637782 39.185739 3 111 1.5 0 69 1 delete
10:22:57 44.637735 39.185738 4 110 1.677050948143 354.89999389648 69 1 delete
10:22:52 44.637659 39.185732 5 114 1.677050948143 5.0999999046326 69 1 delete
10:22:51 44.637645 39.185729 5 114 1.677050948143 339 69 1 delete
10:22:42 44.637546 39.185717 6 116 1.5 0 69 1 delete
10:22:41 44.637540 39.185717 6 116 1.5 0 69 1 delete
10:22:36 44.637451 39.185730 7 118 2.3048861026764 331.39999389648 69 1 delete
10:22:31 44.637344 39.185783 5 120 2.9154758453369 322.79998779297 69 1 delete
10:22:29 44.637288 39.185818 5 123 2.1213202476501 327.70001220703 69 1 delete
10:22:26 44.637232 39.185833 4 128 1.9525624513626 12.800000190735 69 1 delete
10:22:22 44.637158 39.185746 6 131 2.3048861026764 12.39999961853 69 1 delete
10:22:18 44.637069 39.185713 5 133 2.3048861026764 6.1999998092651 69 1 delete
10:22:17 44.637048 39.185701 5 135 2.5 11.39999961853 69 1 delete
10:22:13 44.636941 39.185649 5 133 2.5 15.10000038147 69 1 delete
10:22:09 44.636858 39.185595 5 135 2.1213202476501 2.7000000476837 69 1 delete
10:22:06 44.636806 39.185579 6 134 2.7041635513306 12 69 1 delete
10:22:04 44.636759 39.185542 5 134 2.7041635513306 31.39999961853 69 1 delete
10:22:00 44.636676 39.185446 6 135 2.9154758453369 13.39999961853 69 1 delete
10:21:57 44.636574 39.185374 9 132 2.9154758453369 38.099998474121 69 1 delete
10:21:55 44.636530 39.185305 7 131 2.7041635513306 45.200000762939 69 1 delete
10:21:54 44.636513 39.185267 7 131 2.7041635513306 38.400001525879 69 1 delete
10:21:50 44.636438 39.185150 6 126 1.9525624513626 25.10000038147 69 1 delete
10:21:44 44.636378 39.185047 5 126 1.9525624513626 47.099998474121 69 1 delete
10:21:43 44.636368 39.185025 5 125 1.9525624513626 42.299999237061 69 1 delete
10:21:39 44.636298 39.184947 6 122 2.7041635513306 359.5 69 1 delete
10:21:35 44.636188 39.184914 6 125 2.5 350.70001220703 69 1 delete
10:21:31 44.636090 39.184892 6 127 2.5 32.299999237061 69 1 delete
10:21:27 44.635997 39.184806 7 124 2.5 27.60000038147 69 1 delete
10:21:22 44.635885 39.184760 6 124 1.8027756214142 19.10000038147 69 1 delete
10:21:21 44.635866 39.184755 6 125 1.8027756214142 23.89999961853 69 1 delete
10:21:15 44.635793 39.184775 8 125 1.9525624513626 254.39999389648 69 1 delete
10:21:11 44.635749 39.184879 9 131 1.9525624513626 314.20001220703 69 1 delete
10:21:10 44.635727 39.184900 10 130 1.9525624513626 299 69 1 delete
10:21:05 44.635668 39.185008 6 127 1.8027756214142 295.79998779297 69 1 delete
10:20:59 44.635617 39.185106 7 129 1.5 0 69 1 delete
10:20:58 44.635593 39.185121 7 128 1.5 0 69 1 delete
10:20:55 44.635488 39.185197 9 127 2.5 323.79998779297 69 1 delete